Погода Маресале

Погода Маресале : погода сейчас, прогноз погоды и архив. Всё, что Вы хотите узнать о погоде Маресале!

Хотите узнать прогноз погоды Маресале? Тогда Вам сюда: Погода Маресале

Поиск расширенной информации на нашем сайте:

Другие новости

Новости СМИ2

Главная страница сайта

Новости сайта

03.07.2017

Напоминаем, что на нашем специализированном сайте Метеоцентр.Азия вы можете получить высокодетализированные автоматические прогнозы погоды по пунктам России, СНГ и мира в авиационном формате (включающие направление и скорость ветра, видимость, явления погоды, количество и форму облачности, нижнюю и верхнюю границу облачности).


Погода Маресале - сегодня

Время (UTC), дата Ветер
(°,м/с) 
Видим.   Явления Облачность Т
(°С)
Тd
(°С)
f(%) Тe
(°С)
Pmin
(гПа)
dP
(гПа)
Po
(мм)
O2
(г/м3)
Тmin Tmax R s Состояние
почвы
03 10.05.18 200 (Ю) 10 км    8/4 600 м средняя 
[Sc|Ac trans]
-12.1 -12.7 95 -16  1024.6  -1  766  324  -15      47  неравномерный
сухой снег
100% 
06 10.05.18 200 (Ю) 10 км    10/3 600 м средняя 
[Sc|Ac As]
-8.7 -10.9 84 -14  1023  -1.5  765  319           
00 11.05.18 290 (З) 8-10{10}  4000 м  дымка{ливн. осадки}  10/10 100 м 
[St]
+0 +0 100 -4  1000.5  -0.9  748  301           
03 11.05.18 330 (СЗ) 8-10{12}  4000 м  позёмок  10/10 120 м 
[St]
-3.5 -3.5 100 -8  1002.2  1.7  749  306  -5.7    49  неравномерный
сухой снег
100% 
03 12.05.18 020 (С) 8-10{13}  2000 м  слаб. ливневой снег  10/10 180 м кучево-дожд. 
[Cb cap]
-8.1 -8.4 98 -14  1023.1  1.2  765  318  -10.8    0.2  52  неравномерный
сухой снег
100% 
00 13.05.18 230 (ЮЗ) 9-11{14}  1000 м  слаб. ливневой снег  10/10 120 м кучево-дожд. 
[Cb cap]
-4.1 -4.1 100 -10  1008.6  -4.9  754  309           
03 13.05.18 230 (ЮЗ) 6{12}  2000 м  слаб. ливневой снег  10/10 120 м кучево-дожд. 
[Cb cap]
-1.8 -1.8 100 -6  1004.2  -4.3  751  305  -6.8    0.5  52  неравномерный
сухой снег
100% 
00 14.05.18 360 (С) 14-18{18}  4000 м  позёмок  10/10 270 м 
[St]
-5.6 -5.9 98 -13  1008.2  3.2  754  311           
03 14.05.18 360 (С) 12-14{18}  4000 м  метель  10/10 300 м 
[St]
-6.8 -7.6 94 -14  1011  2.7  756  313  -7.4      52  неравномерный
сухой снег
100% 
00 15.05.18 360 (С) 10 км  {ливн. осадки}  6/4 600 м средняя 
[Sc|Ac trans]
-13.2 -14.3 91 -18  1016.1  1.1  760  323           
03 15.05.18 320 (СЗ) 2000 м  слаб. ливневой снег  10/10 270 м кучево-дожд. 
[Cb cap]
-9.4 -10.5 92 -15  1016.6  0.6  760  318  -13.3    0.2  52  неравномерный
сухой снег
100% 
03 16.05.18 310 (СЗ) 2000 м  слаб. ливневой снег  10/10 500 м кучево-дожд. 
[Cb cap]
-7.7 -8.3 95 -12  1019.5  -0.1  762  317  -7.8    0.3  52  неравномерный
сухой снег
100% 
09 16.05.18 340 (С) 10 км  позёмок  10/5 600 м средняя 
[Sc|Ac und]
-6.1 -7.5 90 -11  1019.4  0.4  762  315           
03 17.05.18 040 (СВ) 2000 м  слаб. ливневой снег  10/10 660 м кучево-дожд. 
[Cb cap]
-8.6 -9 97 -13  1015  759  317  -8.6    0.7  53  неравномерный
сухой снег
100% 
09 17.05.18 360 (С) 10 км  позёмок  6/3 600 м средняя 
[Sc|Ac trans]
-7 -9 86 -13  1016.8  1.1  760  315           
03 18.05.18 350 (С) 7{12}  10 км  позёмок{ливн. осадки}  10/10 400 м кучево-дожд. 
[Cb cap]
-7.3 -7.7 97 -13  1022.7  0.9  765  317  -7.5    0.3  53  неравномерный
сухой снег
100% 
00 19.05.18 150 (ЮВ) 0500 м  туман  ?/?  
-8.3 -8.5 98 -10  1021.2  -1.2  763  318           
03 19.05.18 130 (ЮВ) 4000 м  позёмок{туман}  10/10 100 м 
[St]
-8.3 -8.5 98 -13  1019.3  -2  762  318  -8.5      53  неравномерный
сухой снег
100% 
03 20.05.18 270 (З) 0500 м  туман{ливн. осадки}  ?/?  
+0.3 +0.3 100 998.3  -0.6  746  300  -4.4    52  неравномерный
мокрый или
старый снег
100% 
21 20.05.18 290 (З) 0500 м  туман  ?/?  
-7.2 -7.2 100 -11  1011.8  0.5  756  314           
00 21.05.18 230 (ЮЗ) 4000 м  дымка{туман}  4/4 200 м 
[St]
-8.9 -9.2 98 -12  1011.9  0.1  756  316           
03 21.05.18 220 (ЮЗ) 2000 м  слаб. ливневой снег  10/10 270 м кучево-дожд. 
[Cb cap]
-5.2 -5.2 100 -10  1011.2  -0.6  756  311  -9.1    0.3  52  неравномерный
мокрый или
старый снег
100% 
12 21.05.18 220 (ЮЗ) 10-12{13}  4000 м  дымка{ливн. осадки}  10/10 150 м 
[St]
+0.4 +0.4 100 -4  1005.7  -2.2  752  302           
15 21.05.18 220 (ЮЗ) 15-20{20}  0500 м  ливневой снег  10/10 270 м кучево-дожд. 
[Cb cap]
+0.1 +0.1 100 -6  999.9  -5.8  748  301    +0.7     
03 22.05.18 240 (ЮЗ) 7{12}  0500 м  ливневой снег  10/10 120 м кучево-дожд. 
[Cb cap]
+0 +0 100 -4  989.9  -2  740  298  -0.2    53  неравномерный
мокрый или
старый снег
100% 
Время (UTC), дата Ветер
(°,м/с) 
Видим.   Явления Облачность Т
(°С)
Тd
(°С)
f(%) Тe
(°С)
Pmin
(гПа)
dP
(гПа)
Po
(мм)
O2
(г/м3)
Тmin Tmax R s Состояние
почвы

Для получения пояснительной информации подведите курсор к названию столбца.

ПОГОДА Маресале - архив

Всё, что Вы хотите узнать о погоде Маресале - удобно и подробно!

Выберите нужную дату (начиная с 1 января 2015* года) и нажмите кнопку "Найти".
Будут отображены архивные сводки погоды по пункту Маресале, начиная с указанной даты.


Отображать данные в формате CSV (для использования в таблицах Excel)


Внимание! Наш архив погоды предназначен исключительно для личного некоммерческого использования в познавательных целях. Если Вам необходимы официальные справки о состоянии погоды (для производственных, юридических, коммерческих и т.п. целей), обращайтесь в органы Росгидромета.

*Примечание: данная дата относится к архиву по метеостанциям СССР (Россия, СНГ, Балтия).
Архив по метеостанциям Зарубежной Европы и Азии (кроме Китая) хранится 10 дней, по другим регионам земного шара (Китай, Африка, Америка, Австралия, Океания) - 1 день.

Маресале - район местоположения метеостанции


Название, широта, долгота, высота метеостанции:
Маресале 69.7°ш. 66.8°д. 25 м над ур. моря [Российская Федерация]

Дополнительная информация

В oтличие oт бoльшинства пoгoдных сайтoв мы публикуем пoдрoбную метеoинфoрмацию в детальнoм прoфессиoнальнoм фoрмате.

Характеристики температуры и влажнoсти вoздуха измеряются на высoте 2 м в тени вдали oт зданий и деревьев.
Скoрoсть ветра измеряется на высoте 10 м (на урoвне рoста челoвека скoрoсть ветра ниже в 1.5-2 раза). Если метеoстанция нахoдится в гoрoде или в лесу, тo скoрoсть ветра занижена на 2-4 м/с пo сравнению с oткрытым местoм. Скoрoсть ветра над акватoриями крупных рек и oзёр, а также на вершинах хoлмoв на 2-5 м/с выше, чем в oбычных услoвиях.
Атмoсфернoе давление в разных тoчках местнoсти мoжет значительнo oтличаться oт давления на метеoстанции, в зависимoсти oт услoвий рельефа (при пoдъёме на 10 м давление пoнижается примернo на 1 мм рт.ст.).